Weather History for Toledo, OH

Change the Weather History Date:

Sunday, April 14, 2013

  Actual Average Record
Temperature  
Mean Temperature 43 °F 49 °F  
Max Temperature 52 °F 60 °F 83 °F (1941)
Min Temperature 34 °F 38 °F 20 °F (1973)
Degree Days  
Heating Degree Days 22 16  
Month to date heating degree days 313 262  
Since 1 July heating degree days 5740 5688  
Cooling Degree Days 0 0  
Month to date cooling degree days 0 0  
Year to date cooling degree days 0 0  
Moisture  
Dew Point 33 °F    
Average Humidity 73    
Maximum Humidity 89    
Minimum Humidity 56    
Precipitation  
Precipitation T in 0.11 in 1.03 in (2009)
Month to date precipitation 2.18 1.48  
Year to date precipitation 9.35 8.08  
Snow  
Snow 0.00 in 0.00 in - ()
Month to date snowfall T 0.9  
Since 1 July snowfall 22.1 37.1  
Snow Depth 0.00 in    
Sea Level Pressure  
Sea Level Pressure 30.03 in    
Wind  
Wind Speed 7 mph (East)    
Max Wind Speed 17 mph    
Max Gust Speed 22 mph    
Visibility 10 miles    
Events      
T = Trace of Precipitation, MM = Missing Value Source: NWS Daily Summary

Daily Weather History Graph

Daily Weather History Graph

Search for Another Location

Airport:

Trip Planner

Search our weather history database for the weather conditions in past years. The results will help you decide how hot, cold, wet, or windy it might be!

Date:

Astronomy

Apr. 14, 2013 Rise Set
Actual Time 6:56 AM EDT 8:14 PM EDT
Civil Twilight 6:27 AM EDT 8:43 PM EDT
Nautical Twilight 5:53 AM EDT 9:18 PM EDT
Astronomical Twilight 5:17 AM EDT 9:54 PM EDT
Moon 9:30 AM EDT (4/14) No Moon Set
Length of Visible Light 14h 16m
Length of Day
13h 18m
Waxing Crescent, 17% of the Moon is Illuminated
Apr 14
Waxing Crescent
Apr 18
First Quarter
Apr 25
Full
May 2
Last Quarter
May 9
New

Hourly Weather History & Observations

Time (EDT) Temp. Windchill Dew Point Humidity Pressure Visibility Wind Dir Wind Speed Gust Speed Precip Events Conditions
12:52 AM 39.0 °F - 28.9 °F 67% 30.01 in 10.0 mi Calm Calm - N/A   Overcast
1:52 AM 37.9 °F 35.5 °F 30.0 °F 73% 30.03 in 10.0 mi WSW 3.5 mph - N/A   Overcast
2:52 AM 39.0 °F 36.8 °F 30.9 °F 73% 30.02 in 10.0 mi SW 3.5 mph - N/A   Overcast
3:52 AM 36.0 °F - 30.0 °F 79% 30.03 in 10.0 mi Calm Calm - N/A   Mostly Cloudy
4:52 AM 34.0 °F - 30.0 °F 85% 30.04 in 10.0 mi Calm Calm - N/A   Overcast
5:52 AM 36.0 °F - 30.9 °F 82% 30.06 in 10.0 mi Calm Calm - N/A   Overcast
6:52 AM 35.1 °F - 32.0 °F 89% 30.09 in 10.0 mi Calm Calm - N/A   Overcast
7:52 AM 37.0 °F - 33.1 °F 86% 30.10 in 10.0 mi Calm Calm - N/A   Overcast
8:52 AM 39.0 °F 36.8 °F 32.0 °F 76% 30.09 in 10.0 mi ENE 3.5 mph - N/A   Overcast
9:52 AM 41.0 °F 37.1 °F 28.9 °F 62% 30.10 in 10.0 mi East 5.8 mph - N/A   Overcast
10:52 AM 41.0 °F 39.0 °F 28.9 °F 62% 30.11 in 10.0 mi SE 3.5 mph - N/A   Overcast
11:52 AM 42.1 °F 36.6 °F 30.9 °F 65% 30.09 in 10.0 mi East 9.2 mph - 0.00 in   Overcast
12:52 PM 46.0 °F 42.5 °F 32.0 °F 58% 30.08 in 10.0 mi East 6.9 mph - N/A   Overcast
1:52 PM 48.9 °F - 34.0 °F 56% 30.05 in 10.0 mi East 12.7 mph - N/A   Scattered Clouds
2:52 PM 50.0 °F - 36.0 °F 59% 30.04 in 10.0 mi East 15.0 mph - N/A   Clear
3:52 PM 51.1 °F - 37.0 °F 59% 30.01 in 10.0 mi East 13.8 mph 19.6 mph N/A   Clear
4:52 PM 50.0 °F - 37.9 °F 63% 29.99 in 10.0 mi East 15.0 mph - N/A   Clear
5:52 PM 50.0 °F - 37.0 °F 61% 30.00 in 10.0 mi East 10.4 mph - N/A   Clear
6:52 PM 48.0 °F - 36.0 °F 63% 29.99 in 10.0 mi East 12.7 mph - N/A   Clear
7:52 PM 46.0 °F 39.6 °F 35.1 °F 66% 29.98 in 10.0 mi ENE 15.0 mph - N/A   Clear
8:52 PM 43.0 °F 37.7 °F 34.0 °F 71% 29.98 in 10.0 mi East 9.2 mph - N/A   Clear
9:52 PM 41.0 °F 35.2 °F 34.0 °F 76% 29.96 in 10.0 mi East 9.2 mph - N/A   Clear
10:52 PM 41.0 °F 35.8 °F 34.0 °F 76% 29.95 in 10.0 mi East 8.1 mph - N/A   Clear
11:52 PM 39.9 °F 35.1 °F 35.1 °F 83% 29.94 in 10.0 mi East 6.9 mph - N/A   Clear